{"data":{"norad_id":68809,"intl_designator":"2026-089H","name":"STARLINK-37405","alt_names":[],"object_type":"PAYLOAD","status":"ACTIVE","operator":null,"country":"US","launch_date":"2026-04-23","launch_site_code":"AFWTR","launch_vehicle":null,"mission":null,"orbit_class":"UNKNOWN","rcs_meters":null,"size_class":null,"mass_kg":null,"dimensions":null,"purposes":["comms"],"wikipedia_slug":null,"has_3d_model":false,"image_url":null,"decayed_at":null,"tle_current":{"epoch":"2026-05-25T02:46:44.192928Z","epoch_age_seconds":79224,"freshness":"FRESH","line1":"1 68809U 26089H   26145.11578927  .00196313  00000+0  12875-2 0  9991","line2":"2 68809  97.2845 351.7594 0001791  73.7988 286.3474 15.75180817  5060","mean_motion":15.75180817,"eccentricity":0.0001791,"inclination_deg":97.2845,"raan_deg":351.7594,"arg_perigee_deg":73.7988,"mean_anomaly_deg":286.3474,"bstar":0.0012875,"rev_number":506,"period_min":91.418076227118,"perigee_km":342.912739216,"apogee_km":345.3206504895,"semimajor_km":6722.2536948528,"source":"CELESTRAK","updated_at":"2026-05-25T13:38:22.041262Z"}}}